Terminal Aerodrome Forecast
Issued by NWS

Home | Current Version | Previous Version | Text Only | Print | Product List | Glossary On
Versions: 1 2 3 4 5 6 7 8 9 10 11 12
303
FTUS44 KEPZ 232333
TAFDMN
TAF
KDMN 232333Z 2400/2424 26027G37KT P6SM SCT070 SCT140
      TEMPO 2400/2402 3SM BLDU
     FM240300 28015G25KT P6SM SKC=

USA.gov is the U.S. government's official web portal to all federal, state and local government web resources and services.